Ann Arbor, MI

10:45 AM EDT on August 21, 2017 (GMT -0400)
Ann Arbor Municipal

Weather History for KARB - April, 2012

Change the Weather History Date:

Friday, April 6, 2012

  Actual Average Record
Temperature  
Mean Temperature 44 °F -  
Max Temperature 59 °F 52 °F 79 °F (2005)
Min Temperature 30 °F 31 °F 21 °F (2004)
Degree Days  
Heating Degree Days 20    
Moisture  
Dew Point 24 °F    
Average Humidity 48    
Maximum Humidity 70    
Minimum Humidity 27    
Precipitation  
Precipitation 0.00 in - - ()
Sea Level Pressure  
Sea Level Pressure 30.24 in    
Wind  
Wind Speed 7 mph (NNE)    
Max Wind Speed 12 mph    
Max Gust Speed -    
Visibility 10 miles    
Events      
Averages and records for this station are not official NWS values.
T = Trace of Precipitation, MM = Missing Value Source: NWS Daily Summary

Daily Weather History Graph

Daily Weather History Graph

Search for Another Location

Airport or City:

Trip Planner

Search our weather history database for the weather conditions in past years. The results will help you decide how hot, cold, wet, or windy it might be!

Date:

Astronomy

Apr. 06, 2012 Rise Set
Actual Time 7:08 AM EDT 8:06 PM EDT
Civil Twilight 6:39 AM EDT 8:35 PM EDT
Nautical Twilight 6:05 AM EDT 9:09 PM EDT
Astronomical Twilight 5:30 AM EDT 9:45 PM EDT
Moon 8:26 PM EDT (4/6) 6:39 AM EDT (4/6)
Length of Visible Light 13h 55m
Length of Day
12h 58m
Full, 100% of the Moon is Illuminated
Apr 6
Full
Apr 6
Full
Apr 13
Last Quarter
Apr 21
New
Apr 29
First Quarter

Hourly Weather History & Observations

Time (EDT) Temp. Windchill Dew Point Humidity Pressure Visibility Wind Dir Wind Speed Gust Speed Precip Events Conditions
12:53 AM 34.0 °F 26.6 °F 23.0 °F 64% 30.17 in 10.0 mi NNE 9.2 mph - N/A   Clear
1:53 AM 33.1 °F 26.9 °F 23.0 °F 66% 30.18 in 10.0 mi NNE 6.9 mph - N/A   Clear
2:53 AM 32.0 °F 25.6 °F 23.0 °F 69% 30.17 in 10.0 mi NNE 6.9 mph - N/A   Clear
3:53 AM 32.0 °F 24.8 °F 21.9 °F 66% 30.18 in 10.0 mi NE 8.1 mph - N/A   Clear
4:53 AM 32.0 °F 25.6 °F 21.9 °F 66% 30.19 in 10.0 mi NNE 6.9 mph - N/A   Clear
5:53 AM 30.9 °F 25.2 °F 21.9 °F 69% 30.20 in 10.0 mi NNE 5.8 mph - N/A   Clear
6:53 AM 32.0 °F 27.5 °F 21.9 °F 66% 30.22 in 10.0 mi North 4.6 mph - N/A   Clear
7:53 AM 33.1 °F 30.0 °F 24.1 °F 70% 30.25 in 10.0 mi North 3.5 mph - N/A   Clear
8:53 AM 39.0 °F 32.3 °F 26.1 °F 60% 30.28 in 10.0 mi NNE 10.4 mph - N/A   Clear
9:53 AM 45.0 °F 41.2 °F 26.1 °F 48% 30.29 in 10.0 mi NE 6.9 mph - N/A   Clear
10:53 AM 48.0 °F - 25.0 °F 41% 30.30 in 10.0 mi Variable 5.8 mph - N/A   Clear
11:53 AM 51.1 °F - 25.0 °F 36% 30.29 in 10.0 mi Variable 3.5 mph - N/A   Clear
12:53 PM 53.1 °F - 24.1 °F 32% 30.29 in 10.0 mi NNE 9.2 mph - N/A   Clear
1:53 PM 54.0 °F - 25.0 °F 33% 30.28 in 10.0 mi Variable 5.8 mph - N/A   Clear
2:53 PM 55.9 °F - 24.1 °F 29% 30.27 in 10.0 mi Variable 6.9 mph - N/A   Clear
3:53 PM 59.0 °F - 25.0 °F 27% 30.25 in 10.0 mi NNW 5.8 mph - N/A   Clear
4:53 PM 57.9 °F - 24.1 °F 27% 30.24 in 10.0 mi NNE 11.5 mph - N/A   Clear
5:53 PM 57.9 °F - 25.0 °F 28% 30.24 in 10.0 mi NNE 6.9 mph - N/A   Clear
6:53 PM 57.0 °F - 24.1 °F 28% 30.24 in 10.0 mi NNW 6.9 mph - N/A   Clear
7:53 PM 53.1 °F - 23.0 °F 31% 30.24 in 10.0 mi North 6.9 mph - N/A   Clear
8:53 PM 51.1 °F - 25.0 °F 36% 30.24 in 10.0 mi North 4.6 mph - N/A   Clear
9:53 PM 48.9 °F - 23.0 °F 36% 30.25 in 10.0 mi North 4.6 mph - N/A   Clear
10:53 PM 45.0 °F 42.6 °F 30.0 °F 56% 30.27 in 10.0 mi East 4.6 mph - N/A   Clear
11:53 PM 43.0 °F - 30.0 °F 60% 30.27 in 10.0 mi Calm Calm - N/A   Clear